Location: ??????
(56.0120°N, 39.1740°E)
Time: 18:15:55
(UTC+00:00)

USA 234 - Pass Details

Date: 14 April 2026
Orbit: 1102 x 1106 km, 123.0° (Epoch: 4 January)

Event Time Altitude Azimuth Distance (km) Brightness Sun altitude
Rises 17:11:05 0° 64° (ENE) 3,929 5.8 -6.4°
Reaches altitude 10° 17:13:42 10° 70° (ENE) 2,969 5.1 -6.7°
Maximum altitude 17:19:59 47° 143° (SE) 1,425 3.5 -7.5°
Drops below altitude 10° 17:26:16 10° 217° (SW) 2,960 5.6 -8.2°
Sets 17:28:52 0° 223° (SW) 3,916 6.3 -8.5°
